| time (UTC) | temp F | wind direction | speed knots | gust knots | rain 1hr in | rain 24hr in | rain mn in | humidity % | barometer mb |
| 20260504050212 | 49 | 225 | 1.7 | 3.5 | 0.00 | 0.00 | 0.00 | 41 | 992.2 |
| 20260504045212 | 49 | 210 | 3.5 | 5.2 | 0.00 | 0.00 | 0.00 | 41 | 992.2 |
| 20260504044311 | 49 | 203 | 1.7 | 4.3 | 0.00 | 0.00 | 0.00 | 41 | 992.6 |
| 20260504043314 | 50 | 202 | 1.7 | 2.6 | 0.00 | 0.00 | 0.00 | 41 | 992.6 |
| 20260504042412 | 50 | 202 | 0.9 | 2.6 | 0.00 | 0.00 | 0.00 | 41 | 992.6 |
| 20260504041411 | 50 | 202 | 0.9 | 1.7 | 0.00 | 0.00 | 0.00 | 41 | 992.6 |
| 20260504040415 | 50 | 202 | 0.9 | 1.7 | 0.00 | 0.00 | 0.00 | 41 | 992.6 |
| 20260504035424 | 51 | 202 | 0.9 | 1.7 | 0.00 | 0.00 | 0.00 | 41 | 992.6 |
| 20260504033524 | 52 | 202 | 1.7 | 2.6 | 0.00 | 0.00 | 0.00 | 43 | 992.6 |
| 20260504032522 | 53 | 225 | 1.7 | 2.6 | 0.00 | 0.00 | 0.00 | 43 | 992.8 |
| 20260504031621 | 53 | 202 | 1.7 | 3.5 | 0.00 | 0.00 | 0.00 | 41 | 992.9 |
| 20260504030623 | 53 | 247 | 0.9 | 1.7 | 0.00 | 0.00 | 0.00 | 41 | 993.2 |
| 20260504025621 | 54 | 247 | 0.9 | 2.6 | 0.00 | 0.00 | 0.00 | 41 | 992.9 |
| 20260504024622 | 53 | 225 | 0.9 | 2.6 | 0.00 | 0.00 | 0.00 | 41 | 993.2 |
| 20260504023623 | 53 | 247 | 0.9 | 2.6 | 0.00 | 0.00 | 0.00 | 41 | 993.2 |
| 20260504022624 | 53 | 270 | 0.9 | 1.7 | 0.00 | 0.00 | 0.00 | 41 | 993.2 |
| 20260504021621 | 54 | 270 | 0.0 | 1.7 | 0.00 | 0.00 | 0.00 | 41 | 993.6 |
| 20260504020622 | 55 | 292 | 0.0 | 0.0 | 0.00 | 0.00 | 0.00 | 41 | 993.6 |
| 20260504015623 | 55 | 247 | 0.9 | 1.7 | 0.00 | 0.00 | 0.00 | 42 | 993.6 |
| 20260504014721 | 54 | 225 | 0.9 | 1.7 | 0.00 | 0.00 | 0.00 | 44 | 993.6 |
| 20260504013723 | 55 | 292 | 0.0 | 0.0 | 0.00 | 0.00 | 0.00 | 45 | 993.6 |
| 20260504011725 | 55 | 284 | 0.9 | 3.5 | 0.00 | 0.00 | 0.00 | 45 | 993.6 |
| 20260504010722 | 55 | 252 | 3.5 | 5.2 | 0.00 | 0.00 | 0.00 | 45 | 993.9 |
| 20260504005722 | 55 | 255 | 3.5 | 7.8 | 0.00 | 0.00 | 0.00 | 45 | 993.6 |
| 20260504004721 | 56 | 254 | 5.2 | 7.8 | 0.00 | 0.00 | 0.00 | 45 | 993.6 |
| 20260504003722 | 56 | 292 | 4.3 | 9.6 | 0.00 | 0.00 | 0.00 | 45 | 993.6 |
| 20260504001822 | 56 | 269 | 3.5 | 10.4 | 0.00 | 0.00 | 0.00 | 46 | 993.2 |
| 20260504000822 | 56 | 285 | 1.7 | 6.1 | 0.00 | 0.00 | 0.00 | 45 | 992.9 |
| 20260503235823 | 56 | 287 | 1.7 | 6.1 | 0.00 | 0.00 | 0.00 | 45 | 992.9 |
| 20260503233823 | 56 | 238 | 3.5 | 7.8 | 0.00 | 0.00 | 0.00 | 45 | 992.9 |
| 20260503230922 | 57 | 264 | 5.2 | 9.6 | 0.00 | 0.00 | 0.00 | 45 | 993.2 |
| 20260503230021 | 57 | 309 | 0.9 | 9.6 | 0.00 | 0.00 | 0.00 | 43 | 993.0 |
| 20260503225023 | 57 | 270 | 5.2 | 14.8 | 0.00 | 0.00 | 0.00 | 42 | 993.0 |
| 20260503224022 | 57 | 317 | 0.0 | 3.5 | 0.00 | 0.00 | 0.00 | 42 | 992.7 |
| 20260503221122 | 58 | 247 | 2.6 | 6.1 | 0.00 | 0.00 | 0.00 | 42 | 992.6 |
| 20260503220125 | 58 | 271 | 2.6 | 6.1 | 0.00 | 0.00 | 0.00 | 42 | 992.9 |
| 20260503215123 | 57 | 279 | 1.7 | 3.5 | 0.00 | 0.00 | 0.00 | 42 | 992.9 |
| 20260503213222 | 58 | 257 | 4.3 | 6.1 | 0.00 | 0.00 | 0.00 | 43 | 992.9 |
| 20260503212221 | 58 | 261 | 4.3 | 9.6 | 0.00 | 0.00 | 0.00 | 45 | 992.9 |
| 20260503210222 | 57 | 260 | 1.7 | 4.3 | 0.00 | 0.00 | 0.00 | 44 | 992.9 |
| 20260503205223 | 56 | 254 | 1.7 | 3.5 | 0.00 | 0.00 | 0.00 | 44 | 993.2 |
| 20260503204222 | 56 | 247 | 0.9 | 2.6 | 0.00 | 0.00 | 0.00 | 44 | 993.2 |
| 20260503203321 | 56 | 259 | 3.5 | 6.1 | 0.00 | 0.00 | 0.00 | 43 | 993.2 |
| 20260503202322 | 56 | 267 | 4.3 | 7.8 | 0.00 | 0.00 | 0.00 | 43 | 993.2 |
| 20260503200321 | 55 | 285 | 0.9 | 3.5 | 0.00 | 0.00 | 0.00 | 42 | 993.9 |
| 20260503195321 | 55 | 261 | 3.5 | 5.2 | 0.00 | 0.00 | 0.00 | 42 | 993.9 |
| 20260503193421 | 55 | 260 | 4.3 | 7.0 | 0.00 | 0.00 | 0.00 | 42 | 994.3 |
| 20260503191423 | 57 | 253 | 7.0 | 9.6 | 0.00 | 0.00 | 0.00 | 44 | 994.6 |
| 20260503190521 | 56 | 265 | 6.1 | 9.6 | 0.00 | 0.00 | 0.00 | 42 | 994.6 |
| 20260503184522 | 56 | 317 | 0.0 | 0.0 | 0.00 | 0.00 | 0.00 | 42 | 994.6 |
| 20260503183521 | 56 | 273 | 3.5 | 8.7 | 0.00 | 0.00 | 0.00 | 42 | 994.6 |
| 20260503182521 | 55 | 290 | 1.7 | 7.0 | 0.00 | 0.00 | 0.00 | 41 | 994.6 |
| 20260503181524 | 56 | 310 | 0.9 | 5.2 | 0.00 | 0.00 | 0.00 | 42 | 994.6 |
| 20260503180523 | 56 | 274 | 2.6 | 10.4 | 0.00 | 0.00 | 0.00 | 42 | 994.6 |
| 20260503175523 | 56 | 331 | 0.0 | 0.0 | 0.00 | 0.00 | 0.00 | 42 | 994.6 |
| 20260503172624 | 54 | 322 | 0.0 | 1.7 | 0.00 | 0.00 | 0.00 | 43 | 994.9 |
| 20260503170723 | 53 | 41 | 0.0 | 2.6 | 0.00 | 0.00 | 0.00 | 45 | 994.9 |
| 20260503150823 | 51 | 313 | 0.0 | 1.7 | 0.00 | 0.00 | 0.00 | 41 | 996.3 |
| 20260503131023 | 46 | 292 | 2.6 | 9.6 | 0.00 | 0.00 | 0.00 | 42 | 996.7 |
| 20260503120123 | 42 | 276 | 1.7 | 3.5 | 0.00 | 0.00 | 0.00 | 51 | 996.3 |
| 20260503110220 | 38 | 260 | 3.5 | 5.2 | 0.00 | 0.00 | 0.00 | 50 | 995.3 |
| 20260503080923 | 39 | 247 | 0.9 | 1.7 | 0.00 | 0.00 | 0.00 | 50 | 995.3 |
| 20260503071224 | 39 | 292 | 0.0 | 0.0 | 0.00 | 0.00 | 0.00 | 50 | 995.3 |
| 20260503060322 | 39 | 315 | 0.0 | 0.0 | 0.00 | 0.00 | 0.00 | 50 | 995.3 |
| 20260503054422 | 39 | 337 | 0.0 | 0.0 | 0.00 | 0.00 | 0.00 | 50 | 995.7 |
| 20260503053421 | 39 | 337 | 0.0 | 0.0 | 0.00 | 0.00 | 0.00 | 50 | 995.7 |